{"data":{"norad_id":56348,"epoch":"2026-05-25T00:21:26.095968Z","epoch_age_seconds":70186,"freshness":"FRESH","line1":"1 56348U 23058AH  26145.01488537 -.00017152  00000+0 -11848-2 0  9999","line2":"2 56348  97.4469 144.8951 0002261  82.8449 277.3035 15.05734445169602","mean_motion":15.05734445,"eccentricity":0.0002261,"inclination_deg":97.4469,"raan_deg":144.8951,"arg_perigee_deg":82.8449,"mean_anomaly_deg":277.3035,"bstar":-0.0011848,"rev_number":16960,"period_min":95.634393221309,"perigee_km":547.68585679492,"apogee_km":550.81842216379,"semimajor_km":6927.3891394794,"source":"CELESTRAK","updated_at":"2026-05-25T13:38:18.006424Z"}}